Whiteman AFB, MO

11:48 PM CDT on October 17, 2019 (GMT -0500)
Whiteman Air Force Base

Weather History for KSZL - September, 2019

Change the Weather History Date:

Friday, September 20, 2019

  Actual Average Record
Temperature  
Mean Temperature 77 °F -  
Max Temperature 87 °F 75 °F 92 °F (2018)
Min Temperature 68 °F 54 °F 42 °F (2006)
Cooling Degree Days 12    
Growing Degree Days 27 (Base 50)    
Moisture  
Dew Point 70 °F    
Average Humidity 83    
Maximum Humidity 100    
Minimum Humidity 56    
Precipitation  
Precipitation 0.00 in - - ()
Sea Level Pressure  
Sea Level Pressure 29.98 in    
Wind  
Wind Speed 8 mph (South)    
Max Wind Speed 22 mph    
Max Gust Speed 18 mph    
Visibility 10 miles    
Events      
Averages and records for this station are not official NWS values.
T = Trace of Precipitation, MM = Missing Value Source: NWS Daily Summary

Daily Weather History Graph

Daily Weather History Graph

Search for Another Location

Airport or City:

Astronomy

Sep. 20, 2019 Rise Set
Actual Time 6:59 AM CDT 7:14 PM CDT
Civil Twilight 6:33 AM CDT 7:41 PM CDT
Nautical Twilight 6:02 AM CDT 8:12 PM CDT
Astronomical Twilight 5:30 AM CDT 8:43 PM CDT
Moon 11:08 PM CDT (9/20) 1:01 PM CDT (9/20)
Length of Visible Light 13h 07m
Length of Day
12h 14m
Waning Gibbous, 65% of the Moon is Illuminated
Sep 20
Waning Gibbous
Sep 21
Last Quarter
Sep 28
New
Oct 5
First Quarter
Oct 13
Full

Hourly Weather History & Observations

Time (CDT) Temp. Heat Index Dew Point Humidity Pressure Visibility Wind Dir Wind Speed Gust Speed Precip Events Conditions
12:56 AM 73.6 °F - 72.0 °F 95% 29.96 in 10.0 mi South 5.8 mph - N/A   Clear
1:56 AM 72.3 °F - 72.3 °F 100% 29.98 in 10.0 mi South 4.6 mph - N/A   Clear
2:56 AM 71.6 °F - 71.6 °F 100% 29.98 in 10.0 mi SE 3.5 mph - N/A   Clear
3:56 AM 70.2 °F - 70.2 °F 100% 29.98 in 10.0 mi South 3.5 mph - N/A   Partly Cloudy
4:56 AM 69.4 °F - 69.4 °F 100% 29.98 in 10.0 mi Calm Calm - N/A   Partly Cloudy
5:56 AM 68.5 °F - 68.5 °F 100% 29.97 in 10.0 mi SE 4.6 mph - N/A   Partly Cloudy
6:56 AM 68.7 °F - 68.7 °F 100% 29.98 in 10.0 mi SSE 5.8 mph - N/A   Mostly Cloudy
7:56 AM 69.8 °F - 69.8 °F 100% 30.00 in 10.0 mi SSE 6.9 mph - N/A   Scattered Clouds
8:56 AM 73.8 °F - 73.8 °F 100% 30.02 in 10.0 mi South 8.1 mph - N/A   Mostly Cloudy
9:56 AM 79.7 °F - 71.4 °F 76% 30.03 in 10.0 mi SSW 11.5 mph - N/A   Mostly Cloudy
10:56 AM 79.0 °F - 71.1 °F 77% 30.03 in 10.0 mi South 6.9 mph - N/A   Mostly Cloudy
11:56 AM 79.2 °F - 71.6 °F 78% 30.03 in 10.0 mi SSE 6.9 mph - N/A   Mostly Cloudy
12:56 PM 83.3 °F 86.2 °F 67.8 °F 59% 30.02 in 10.0 mi SSE 13.8 mph - N/A   Mostly Cloudy
1:56 PM 84.6 °F 88.8 °F 69.6 °F 61% 30.00 in 10.0 mi SSE 12.7 mph - N/A   Mostly Cloudy
2:56 PM 86.7 °F 91.4 °F 69.6 °F 57% 29.97 in 10.0 mi SE 9.2 mph - N/A   Mostly Cloudy
3:56 PM 85.1 °F 88.2 °F 68.0 °F 56% 29.95 in 10.0 mi South 13.8 mph - N/A   Mostly Cloudy
4:28 PM 84.2 °F 87.3 °F 68.0 °F 58% 29.94 in 10.0 mi SSW 18.4 mph - N/A   Partly Cloudy
4:41 PM 80.6 °F 83.9 °F 69.8 °F 70% 29.95 in 10.0 mi SSW 17.3 mph - N/A   Light Drizzle
4:51 PM 78.8 °F - 69.8 °F 74% 29.95 in 10.0 mi SSW 19.6 mph - N/A   Partly Cloudy
4:56 PM 79.5 °F - 70.5 °F 74% 29.95 in 10.0 mi SSW 20.7 mph - 0.00 in   Partly Cloudy
5:00 PM 78.8 °F - 71.6 °F 78% 29.95 in 10.0 mi SSW 21.9 mph - N/A   Light Drizzle
5:25 PM 77.0 °F - 75.2 °F 94% 29.94 in 10.0 mi South 10.4 mph - N/A   Scattered Clouds
5:56 PM 78.8 °F - 72.5 °F 81% 29.94 in 10.0 mi SSE 9.2 mph - 0.00 in   Scattered Clouds
6:56 PM 77.7 °F - 68.7 °F 74% 29.94 in 10.0 mi South 10.4 mph 18.4 mph N/A   Scattered Clouds
7:56 PM 74.5 °F - 68.2 °F 81% 29.96 in 10.0 mi SSE 8.1 mph - N/A   Mostly Cloudy
8:56 PM 74.3 °F - 68.0 °F 81% 29.97 in 10.0 mi South 9.2 mph - N/A   Overcast
9:56 PM 73.4 °F - 68.9 °F 86% 29.98 in 10.0 mi SSE 10.4 mph - N/A   Mostly Cloudy
10:56 PM 72.9 °F - 69.6 °F 90% 29.98 in 10.0 mi South 11.5 mph - N/A   Overcast
11:56 PM 72.1 °F - 70.0 °F 93% 29.98 in 10.0 mi South 11.5 mph - N/A   Mostly Cloudy